Time,TemperatureF,DewpointF,PressureIn,WindDirection,WindDirectionDegrees,WindSpeedMPH,WindSpeedGustMPH,Humidity,HourlyPrecipIn,Conditions,Clouds,dailyrainin,SoftwareType,DateUTC
2013-06-13 00:04:00,59.7,59.1,29.53,West,270,0.0,-999.0,98,-99.99,,,0.00,Acu-Link.com,2013-06-13 04:04:00,
2013-06-13 00:19:00,59.9,59.3,29.54,South,180,0.0,-999.0,98,-99.99,,,0.00,Acu-Link.com,2013-06-13 04:19:00,
2013-06-13 00:34:00,59.5,58.9,29.53,South,180,0.0,-999.0,98,-99.99,,,0.00,Acu-Link.com,2013-06-13 04:34:00,
2013-06-13 00:50:00,59.2,58.6,29.54,South,180,0.0,-999.0,98,-99.99,,,0.00,Acu-Link.com,2013-06-13 04:50:00,
2013-06-13 01:05:00,58.8,58.2,29.52,South,180,0.0,-999.0,98,-99.99,,,0.00,Acu-Link.com,2013-06-13 05:05:00,
2013-06-13 01:20:00,59.4,58.8,29.51,South,180,0.0,-999.0,98,-99.99,,,0.00,Acu-Link.com,2013-06-13 05:20:00,
2013-06-13 01:35:00,59.2,58.6,29.50,South,180,0.0,-999.0,98,-99.99,,,0.00,Acu-Link.com,2013-06-13 05:35:00,
2013-06-13 01:50:00,59.0,58.4,29.50,NW,315,0.0,-999.0,98,-99.99,,,0.00,Acu-Link.com,2013-06-13 05:50:00,
2013-06-13 02:05:00,59.5,58.9,29.51,SW,225,0.0,-999.0,98,-99.99,,,0.00,Acu-Link.com,2013-06-13 06:05:00,
2013-06-13 02:20:00,58.8,58.2,29.51,SW,225,0.0,-999.0,98,-99.99,,,0.00,Acu-Link.com,2013-06-13 06:20:00,
2013-06-13 02:35:00,58.6,58.0,29.50,SW,225,0.0,-999.0,98,-99.99,,,0.00,Acu-Link.com,2013-06-13 06:35:00,
2013-06-13 02:50:00,58.6,58.0,29.50,SW,225,0.0,-999.0,98,-99.99,,,0.00,Acu-Link.com,2013-06-13 06:50:00,
2013-06-13 03:05:00,58.3,57.7,29.50,SW,225,0.0,-999.0,98,-99.99,,,0.00,Acu-Link.com,2013-06-13 07:05:00,
2013-06-13 03:21:00,58.8,58.2,29.51,SW,225,0.0,-999.0,98,-99.99,,,0.00,Acu-Link.com,2013-06-13 07:21:00,
2013-06-13 03:36:00,59.2,58.6,29.51,SW,225,0.0,-999.0,98,-99.99,,,0.00,Acu-Link.com,2013-06-13 07:36:00,
2013-06-13 03:51:00,59.5,58.9,29.50,SW,225,0.0,-999.0,98,-99.99,,,0.00,Acu-Link.com,2013-06-13 07:51:00,
2013-06-13 04:06:00,60.1,59.5,29.49,SW,225,0.0,-999.0,98,-99.99,,,0.00,Acu-Link.com,2013-06-13 08:06:00,
2013-06-13 04:21:00,60.3,59.7,29.50,SW,225,0.0,-999.0,98,-99.99,,,0.00,Acu-Link.com,2013-06-13 08:21:00,
2013-06-13 04:36:00,60.6,60.0,29.48,SW,225,0.0,-999.0,98,-99.99,,,0.00,Acu-Link.com,2013-06-13 08:36:00,
2013-06-13 04:51:00,61.2,60.6,29.48,East,90,0.0,-999.0,98,-99.99,,,0.00,Acu-Link.com,2013-06-13 08:51:00,
2013-06-13 05:06:00,61.2,60.6,29.49,East,90,0.0,-999.0,98,-99.99,,,0.00,Acu-Link.com,2013-06-13 09:06:00,
2013-06-13 05:21:00,61.9,61.3,29.49,SW,225,0.0,-999.0,98,-99.99,,,0.00,Acu-Link.com,2013-06-13 09:21:00,
2013-06-13 05:37:00,62.2,61.6,29.49,West,270,0.0,-999.0,98,-99.99,,,0.00,Acu-Link.com,2013-06-13 09:37:00,
2013-06-13 05:52:00,62.2,61.6,29.48,WSW,247,0.0,-999.0,98,-99.99,,,0.00,Acu-Link.com,2013-06-13 09:52:00,
2013-06-13 06:07:00,62.4,61.8,29.47,NNE,22,0.0,-999.0,98,-99.99,,,0.00,Acu-Link.com,2013-06-13 10:07:00,
2013-06-13 06:22:00,62.4,61.8,29.46,NNE,22,0.0,-999.0,98,-99.99,,,0.00,Acu-Link.com,2013-06-13 10:22:00,
2013-06-13 06:37:00,62.8,62.2,29.45,WNW,292,0.0,-999.0,98,-99.99,,,0.00,Acu-Link.com,2013-06-13 10:37:00,
2013-06-13 06:52:00,63.1,62.5,29.44,West,270,0.0,-999.0,98,-99.99,,,0.01,Acu-Link.com,2013-06-13 10:52:00,
2013-06-13 07:07:00,63.9,63.3,29.44,ESE,112,0.0,-999.0,98,-99.99,,,0.01,Acu-Link.com,2013-06-13 11:07:00,
2013-06-13 07:22:00,64.0,63.4,29.45,NE,45,0.0,-999.0,98,-99.99,,,0.01,Acu-Link.com,2013-06-13 11:22:00,
2013-06-13 07:37:00,64.0,63.4,29.43,South,180,0.0,-999.0,98,-99.99,,,0.01,Acu-Link.com,2013-06-13 11:37:00,
2013-06-13 07:53:00,63.5,62.9,29.43,West,270,1.1,-999.0,98,-99.99,,,0.01,Acu-Link.com,2013-06-13 11:53:00,
2013-06-13 08:08:00,64.2,63.6,29.43,NNE,22,0.0,-999.0,98,-99.99,,,0.04,Acu-Link.com,2013-06-13 12:08:00,
2013-06-13 08:23:00,65.1,64.5,29.44,NNE,22,0.0,-999.0,98,-99.99,,,0.04,Acu-Link.com,2013-06-13 12:23:00,
2013-06-13 08:38:00,65.1,64.5,29.43,East,90,0.0,-999.0,98,-99.99,,,0.04,Acu-Link.com,2013-06-13 12:38:00,
2013-06-13 08:53:00,65.1,64.5,29.41,North,0,0.0,-999.0,98,-99.99,,,0.04,Acu-Link.com,2013-06-13 12:53:00,
2013-06-13 09:08:00,65.1,64.5,29.40,NE,45,0.0,-999.0,98,-99.99,,,0.04,Acu-Link.com,2013-06-13 13:08:00,
2013-06-13 09:23:00,64.9,64.3,29.39,SSW,202,2.7,-999.0,98,-99.99,,,0.05,Acu-Link.com,2013-06-13 13:23:00,
2013-06-13 09:38:00,64.8,64.2,29.39,ENE,67,0.0,-999.0,98,-99.99,,,0.12,Acu-Link.com,2013-06-13 13:38:00,
2013-06-13 09:53:00,65.5,64.9,29.37,SSE,157,2.2,-999.0,98,-99.99,,,0.13,Acu-Link.com,2013-06-13 13:53:00,
2013-06-13 10:09:00,65.1,64.5,29.37,ENE,67,2.7,-999.0,98,-99.99,,,0.13,Acu-Link.com,2013-06-13 14:09:00,
2013-06-13 10:24:00,64.8,64.2,29.35,NE,45,2.7,-999.0,98,-99.99,,,0.16,Acu-Link.com,2013-06-13 14:24:00,
2013-06-13 10:39:00,64.0,63.4,29.39,South,180,0.0,-999.0,98,-99.99,,,0.25,Acu-Link.com,2013-06-13 14:39:00,
2013-06-13 10:54:00,62.6,62.0,29.38,SE,135,1.1,-999.0,98,-99.99,,,0.42,Acu-Link.com,2013-06-13 14:54:00,
2013-06-13 11:09:00,62.2,61.6,29.36,North,0,0.0,-999.0,98,-99.99,,,0.49,Acu-Link.com,2013-06-13 15:09:00,
2013-06-13 11:24:00,62.6,62.0,29.34,South,180,2.2,-999.0,98,-99.99,,,0.50,Acu-Link.com,2013-06-13 15:24:00,
2013-06-13 11:39:00,63.9,63.3,29.33,ESE,112,2.7,-999.0,98,-99.99,,,0.50,Acu-Link.com,2013-06-13 15:39:00,
2013-06-13 11:54:00,64.0,63.4,29.34,SW,225,2.2,-999.0,98,-99.99,,,0.50,Acu-Link.com,2013-06-13 15:54:00,
2013-06-13 12:09:00,64.0,63.4,29.31,WNW,292,2.7,-999.0,98,-99.99,,,0.50,Acu-Link.com,2013-06-13 16:09:00,
2013-06-13 12:24:00,64.8,64.2,29.28,ESE,112,5.8,-999.0,98,-99.99,,,0.50,Acu-Link.com,2013-06-13 16:24:00,
2013-06-13 12:40:00,64.0,63.4,29.30,SW,225,5.3,-999.0,98,-99.99,,,0.50,Acu-Link.com,2013-06-13 16:40:00,
2013-06-13 12:55:00,63.9,63.3,29.30,South,180,2.2,-999.0,98,-99.99,,,0.50,Acu-Link.com,2013-06-13 16:55:00,
2013-06-13 13:10:00,63.5,62.9,29.30,SW,225,4.2,-999.0,98,-99.99,,,0.50,Acu-Link.com,2013-06-13 17:10:00,
2013-06-13 13:25:00,64.0,63.4,29.29,NW,315,4.2,-999.0,98,-99.99,,,0.50,Acu-Link.com,2013-06-13 17:25:00,
2013-06-13 13:40:00,63.9,63.3,29.27,East,90,1.1,-999.0,98,-99.99,,,0.50,Acu-Link.com,2013-06-13 17:40:00,
2013-06-13 13:55:00,63.7,63.1,29.26,NE,45,2.7,-999.0,98,-99.99,,,0.50,Acu-Link.com,2013-06-13 17:55:00,
2013-06-13 14:10:00,64.0,63.4,29.26,ENE,67,1.7,-999.0,98,-99.99,,,0.50,Acu-Link.com,2013-06-13 18:10:00,
2013-06-13 14:25:00,64.0,63.4,29.24,NE,45,6.3,-999.0,98,-99.99,,,0.50,Acu-Link.com,2013-06-13 18:25:00,
2013-06-13 14:40:00,64.2,63.6,29.25,SSE,157,2.2,-999.0,98,-99.99,,,0.50,Acu-Link.com,2013-06-13 18:40:00,
2013-06-13 14:56:00,64.0,63.4,29.25,ENE,67,1.7,-999.0,98,-99.99,,,0.50,Acu-Link.com,2013-06-13 18:56:00,
2013-06-13 15:11:00,64.2,63.6,29.24,SSW,202,2.2,-999.0,98,-99.99,,,0.50,Acu-Link.com,2013-06-13 19:11:00,
2013-06-13 15:26:00,64.2,63.6,29.26,NW,315,2.2,-999.0,98,-99.99,,,0.50,Acu-Link.com,2013-06-13 19:26:00,
2013-06-13 15:41:00,64.2,63.6,29.25,North,0,3.2,-999.0,98,-99.99,,,0.50,Acu-Link.com,2013-06-13 19:41:00,
2013-06-13 15:56:00,64.0,63.4,29.24,North,0,1.1,-999.0,98,-99.99,,,0.50,Acu-Link.com,2013-06-13 19:56:00,
2013-06-13 16:11:00,64.0,63.4,29.22,NW,315,3.7,-999.0,98,-99.99,,,0.50,Acu-Link.com,2013-06-13 20:11:00,
2013-06-13 16:26:00,64.0,63.4,29.21,SSE,157,2.7,-999.0,98,-99.99,,,0.50,Acu-Link.com,2013-06-13 20:26:00,
2013-06-13 16:41:00,64.9,64.3,29.19,West,270,0.0,-999.0,98,-99.99,,,0.50,Acu-Link.com,2013-06-13 20:41:00,
2013-06-13 16:56:00,66.2,65.6,29.19,East,90,2.2,-999.0,98,-99.99,,,0.50,Acu-Link.com,2013-06-13 20:56:00,
2013-06-13 17:12:00,67.3,66.7,29.17,WNW,292,1.7,-999.0,98,-99.99,,,0.50,Acu-Link.com,2013-06-13 21:12:00,
2013-06-13 17:27:00,66.9,66.3,29.17,NNW,337,0.0,-999.0,98,-99.99,,,0.50,Acu-Link.com,2013-06-13 21:27:00,
2013-06-13 17:42:00,66.4,65.8,29.18,ESE,112,3.7,-999.0,98,-99.99,,,0.50,Acu-Link.com,2013-06-13 21:42:00,
2013-06-13 17:57:00,66.2,65.6,29.16,SW,225,1.1,-999.0,98,-99.99,,,0.50,Acu-Link.com,2013-06-13 21:57:00,
2013-06-13 18:12:00,66.0,65.4,29.14,SSE,157,1.7,-999.0,98,-99.99,,,0.50,Acu-Link.com,2013-06-13 22:12:00,
2013-06-13 18:27:00,65.8,65.2,29.14,North,0,2.2,-999.0,98,-99.99,,,0.50,Acu-Link.com,2013-06-13 22:27:00,
2013-06-13 18:42:00,65.5,64.9,29.15,North,0,4.2,-999.0,98,-99.99,,,0.50,Acu-Link.com,2013-06-13 22:42:00,
2013-06-13 18:57:00,65.1,64.5,29.13,NNW,337,2.2,-999.0,98,-99.99,,,0.51,Acu-Link.com,2013-06-13 22:57:00,
2013-06-13 19:12:00,64.9,64.3,29.18,WSW,247,3.2,-999.0,98,-99.99,,,0.66,Acu-Link.com,2013-06-13 23:12:00,
2013-06-13 19:28:00,64.8,64.2,29.17,SW,225,0.0,-999.0,98,-99.99,,,0.71,Acu-Link.com,2013-06-13 23:28:00,
2013-06-13 19:43:00,64.8,64.2,29.16,ESE,112,0.0,-999.0,98,-99.99,,,0.71,Acu-Link.com,2013-06-13 23:43:00,
2013-06-13 19:58:00,64.4,63.8,29.16,East,90,1.1,-999.0,98,-99.99,,,0.73,Acu-Link.com,2013-06-13 23:58:00,
2013-06-13 20:13:00,63.5,62.9,29.16,WNW,292,1.1,-999.0,98,-99.99,,,0.85,Acu-Link.com,2013-06-14 00:13:00,
2013-06-13 20:28:00,63.0,62.4,29.16,NW,315,1.1,-999.0,98,-99.99,,,0.98,Acu-Link.com,2013-06-14 00:28:00,
2013-06-13 20:43:00,62.4,61.8,29.18,NE,45,1.7,-999.0,98,-99.99,,,1.11,Acu-Link.com,2013-06-14 00:43:00,
2013-06-13 20:58:00,62.2,61.6,29.16,SSE,157,1.7,-999.0,98,-99.99,,,1.12,Acu-Link.com,2013-06-14 00:58:00,
2013-06-13 21:13:00,61.9,61.3,29.16,South,180,7.8,-999.0,98,-99.99,,,1.12,Acu-Link.com,2013-06-14 01:13:00,
2013-06-13 21:28:00,61.7,61.1,29.17,East,90,4.7,-999.0,98,-99.99,,,1.15,Acu-Link.com,2013-06-14 01:28:00,
2013-06-13 21:44:00,61.2,60.6,29.19,NE,45,1.7,-999.0,98,-99.99,,,1.17,Acu-Link.com,2013-06-14 01:44:00,
2013-06-13 21:59:00,60.4,59.8,29.18,NE,45,5.8,-999.0,98,-99.99,,,1.18,Acu-Link.com,2013-06-14 01:59:00,
2013-06-13 22:14:00,59.7,59.1,29.18,WSW,247,3.7,-999.0,98,-99.99,,,1.18,Acu-Link.com,2013-06-14 02:14:00,
2013-06-13 22:29:00,59.2,58.6,29.19,ESE,112,3.2,-999.0,98,-99.99,,,1.19,Acu-Link.com,2013-06-14 02:29:00,
2013-06-13 22:44:00,58.8,58.2,29.18,SW,225,4.2,-999.0,98,-99.99,,,1.19,Acu-Link.com,2013-06-14 02:44:00,
2013-06-13 22:59:00,58.5,57.9,29.19,NE,45,4.7,-999.0,98,-99.99,,,1.19,Acu-Link.com,2013-06-14 02:59:00,
2013-06-13 23:14:00,58.3,57.7,29.19,NE,45,7.3,-999.0,98,-99.99,,,1.19,Acu-Link.com,2013-06-14 03:14:00,
2013-06-13 23:29:00,57.9,57.3,29.20,ESE,112,6.8,-999.0,98,-99.99,,,1.19,Acu-Link.com,2013-06-14 03:29:00,
2013-06-13 23:44:00,57.7,57.1,29.21,SSE,157,2.2,-999.0,98,-99.99,,,1.21,Acu-Link.com,2013-06-14 03:44:00,